| time (UTC) | temp F | wind direction | speed knots | gust knots | rain 1hr in | rain 24hr in | rain mn in | humidity % | barometer mb |
| 20260507064612 | 37 | 190 | 2.6 | 7.0 | 0.10 | 0.30 | 0.30 | 91 | 1015.8 |
| 20260507064057 | 37 | 159 | 1.7 | 4.3 | 0.09 | 0.29 | 0.29 | 92 | 1015.7 |
| 20260507063557 | 37 | 141 | 0.9 | 4.3 | 0.09 | 0.28 | 0.28 | 92 | 1015.7 |
| 20260507063117 | 37 | 169 | 0.9 | 5.2 | 0.08 | 0.27 | 0.27 | 91 | 1015.7 |
| 20260507062556 | 37 | 0 | 0.9 | 5.2 | 0.07 | 0.26 | 0.26 | 91 | 1015.7 |
| 20260507062057 | 37 | 170 | 2.6 | 5.2 | 0.07 | 0.25 | 0.25 | 92 | 1015.7 |
| 20260507061556 | 37 | 117 | 1.7 | 3.5 | 0.06 | 0.24 | 0.24 | 92 | 1015.5 |
| 20260507061059 | 37 | 117 | 1.7 | 3.5 | 0.05 | 0.23 | 0.23 | 92 | 1015.5 |
| 20260507060557 | 37 | 113 | 1.7 | 3.5 | 0.04 | 0.22 | 0.22 | 92 | 1015.5 |
| 20260507060059 | 37 | 150 | 0.9 | 2.6 | 0.03 | 0.21 | 0.21 | 92 | 1015.4 |
| 20260507055557 | 37 | 0 | 0.9 | 2.6 | 0.02 | 0.20 | 0.20 | 92 | 1015.4 |
| 20260507055056 | 37 | 178 | 0.0 | 2.6 | 0.02 | 0.20 | 0.20 | 92 | 1015.3 |
| 20260507054559 | 37 | 178 | 0.9 | 2.6 | 0.03 | 0.20 | 0.20 | 92 | 1015.2 |
| 20260507054057 | 37 | 178 | 0.0 | 1.7 | 0.03 | 0.20 | 0.20 | 92 | 1015.3 |
| 20260507053557 | 38 | 0 | 0.0 | 1.7 | 0.03 | 0.19 | 0.19 | 92 | 1015.2 |
| 20260507053104 | 38 | 179 | 0.0 | 1.7 | 0.03 | 0.19 | 0.19 | 92 | 1015.1 |
| 20260507052556 | 38 | 0 | 0.0 | 1.7 | 0.04 | 0.19 | 0.19 | 92 | 1015.2 |
| 20260507052057 | 38 | 179 | 0.0 | 1.7 | 0.03 | 0.18 | 0.18 | 92 | 1015.2 |
| 20260507051602 | 38 | 0 | 0.9 | 2.6 | 0.05 | 0.18 | 0.18 | 92 | 1015.1 |
| 20260507051059 | 38 | 0 | 0.0 | 3.5 | 0.08 | 0.18 | 0.18 | 91 | 1015.0 |
| 20260507050558 | 38 | 0 | 0.9 | 3.5 | 0.10 | 0.18 | 0.18 | 91 | 1015.1 |
| 20260507050100 | 38 | 119 | 1.7 | 3.5 | 0.12 | 0.18 | 0.18 | 91 | 1015.0 |
| 20260507045557 | 38 | 134 | 1.7 | 3.5 | 0.14 | 0.18 | 0.18 | 91 | 1015.0 |
| 20260507045058 | 38 | 134 | 1.7 | 6.1 | 0.16 | 0.18 | 0.18 | 90 | 1015.0 |
| 20260507044609 | 37 | 135 | 2.6 | 7.0 | 0.16 | 0.17 | 0.17 | 90 | 1015.0 |
| 20260507044057 | 37 | 135 | 3.5 | 8.7 | 0.16 | 0.17 | 0.17 | 90 | 1015.0 |
| 20260507043557 | 37 | 128 | 4.3 | 8.7 | 0.15 | 0.16 | 0.16 | 90 | 1015.0 |
| 20260507043058 | 37 | 130 | 6.1 | 8.7 | 0.15 | 0.16 | 0.16 | 90 | 1015.0 |
| 20260507042554 | 37 | 117 | 4.3 | 8.7 | 0.14 | 0.15 | 0.15 | 90 | 1015.0 |
| 20260507042059 | 37 | 140 | 5.2 | 8.7 | 0.14 | 0.15 | 0.15 | 90 | 1015.1 |
| 20260507041618 | 37 | 132 | 3.5 | 9.6 | 0.13 | 0.13 | 0.13 | 89 | 1015.2 |
| 20260507041059 | 37 | 141 | 5.2 | 12.2 | 0.10 | 0.10 | 0.10 | 89 | 1015.2 |
| 20260507040559 | 38 | 167 | 5.2 | 12.2 | 0.08 | 0.08 | 0.08 | 88 | 1015.2 |
| 20260507040106 | 38 | 143 | 7.0 | 12.2 | 0.06 | 0.06 | 0.06 | 87 | 1015.3 |
| 20260507035558 | 39 | 173 | 5.2 | 14.8 | 0.04 | 0.04 | 0.04 | 87 | 1015.2 |
| 20260507035058 | 40 | 227 | 6.1 | 14.8 | 0.02 | 0.02 | 0.02 | 85 | 1015.1 |
| 20260507034618 | 41 | 214 | 5.2 | 13.9 | 0.01 | 0.01 | 0.01 | 83 | 1015.0 |
| 20260507034102 | 42 | 250 | 4.3 | 13.9 | 0.01 | 0.01 | 0.01 | 79 | 1014.8 |
| 20260507033558 | 43 | 229 | 4.3 | 11.3 | 0.01 | 0.01 | 0.01 | 73 | 1014.6 |
| 20260507033107 | 43 | 238 | 2.6 | 6.1 | 0.01 | 0.01 | 0.01 | 74 | 1014.5 |
| 20260507032559 | 43 | 0 | 2.6 | 8.7 | 0.01 | 0.01 | 0.01 | 73 | 1014.3 |
| 20260507032055 | 43 | 198 | 2.6 | 8.7 | 0.01 | 0.01 | 0.01 | 74 | 1014.1 |
| 20260507031559 | 43 | 153 | 3.5 | 10.4 | 0.00 | 0.00 | 0.00 | 74 | 1014.1 |
| 20260507031057 | 43 | 143 | 6.1 | 10.4 | 0.00 | 0.00 | 0.00 | 72 | 1014.1 |
| 20260507030554 | 43 | 0 | 2.6 | 10.4 | 0.00 | 0.00 | 0.00 | 74 | 1014.0 |
| 20260507025558 | 43 | 286 | 0.9 | 2.6 | 0.00 | 0.00 | 0.00 | 77 | 1014.0 |
| 20260507025055 | 43 | 0 | 0.0 | 4.3 | 0.00 | 0.00 | 0.00 | 78 | 1014.0 |
| 20260507024605 | 43 | 0 | 1.7 | 6.1 | 0.00 | 0.00 | 0.00 | 76 | 1013.9 |
| 20260507024100 | 43 | 282 | 1.7 | 6.1 | 0.00 | 0.00 | 0.00 | 73 | 1014.0 |
| 20260507023600 | 44 | 226 | 0.9 | 8.7 | 0.00 | 0.00 | 0.00 | 70 | 1013.8 |
| 20260507023058 | 44 | 146 | 5.2 | 8.7 | 0.00 | 0.00 | 0.00 | 70 | 1013.9 |
| 20260507022601 | 44 | 138 | 3.5 | 7.0 | 0.00 | 0.00 | 0.00 | 70 | 1013.9 |
| 20260507022102 | 44 | 97 | 2.6 | 6.1 | 0.00 | 0.00 | 0.00 | 70 | 1013.9 |
| 20260507021608 | 44 | 194 | 2.6 | 7.8 | 0.00 | 0.00 | 0.00 | 69 | 1013.9 |
| 20260507021100 | 44 | 209 | 3.5 | 8.7 | 0.00 | 0.00 | 0.00 | 70 | 1013.8 |
| 20260507020601 | 44 | 157 | 2.6 | 8.7 | 0.00 | 0.00 | 0.00 | 72 | 1013.8 |
| 20260507020058 | 44 | 184 | 3.5 | 7.8 | 0.00 | 0.00 | 0.00 | 72 | 1013.7 |
| 20260507015600 | 44 | 308 | 0.9 | 3.5 | 0.00 | 0.00 | 0.00 | 78 | 1013.8 |
| 20260507015101 | 44 | 5 | 0.9 | 3.5 | 0.00 | 0.00 | 0.00 | 78 | 1013.7 |
| 20260507014600 | 44 | 17 | 1.7 | 3.5 | 0.00 | 0.00 | 0.00 | 79 | 1013.6 |
| 20260507014103 | 44 | 304 | 1.7 | 4.3 | 0.00 | 0.00 | 0.00 | 81 | 1013.7 |
| 20260507013601 | 43 | 315 | 1.7 | 4.3 | 0.00 | 0.00 | 0.00 | 78 | 1013.6 |
| 20260507013115 | 43 | 327 | 0.9 | 4.3 | 0.00 | 0.00 | 0.00 | 80 | 1013.6 |
| 20260507012604 | 43 | 58 | 0.9 | 3.5 | 0.00 | 0.00 | 0.00 | 81 | 1013.6 |
| 20260507012101 | 43 | 91 | 0.9 | 5.2 | 0.00 | 0.00 | 0.00 | 82 | 1013.6 |
| 20260507011601 | 43 | 0 | 1.7 | 6.1 | 0.00 | 0.00 | 0.00 | 80 | 1013.6 |
| 20260507011100 | 42 | 136 | 2.6 | 10.4 | 0.00 | 0.00 | 0.00 | 79 | 1013.7 |
| 20260507010601 | 43 | 196 | 3.5 | 10.4 | 0.00 | 0.00 | 0.00 | 77 | 1013.7 |
| 20260507005605 | 43 | 240 | 1.7 | 6.1 | 0.00 | 0.00 | 0.00 | 81 | 1013.6 |
| 20260507005100 | 42 | 53 | 2.6 | 6.1 | 0.00 | 0.00 | 0.00 | 82 | 1013.5 |
| 20260507004600 | 42 | 105 | 0.9 | 4.3 | 0.00 | 0.00 | 0.00 | 82 | 1013.5 |
| 20260507004100 | 42 | 306 | 0.9 | 7.0 | 0.00 | 0.00 | 0.00 | 82 | 1013.4 |
| 20260507003603 | 42 | 0 | 1.7 | 9.6 | 0.00 | 0.00 | 0.00 | 81 | 1013.4 |
| 20260507003105 | 42 | 294 | 3.5 | 9.6 | 0.00 | 0.00 | 0.00 | 81 | 1013.6 |
| 20260507002600 | 42 | 294 | 5.2 | 7.8 | 0.00 | 0.00 | 0.00 | 81 | 1013.6 |
| 20260507002101 | 42 | 286 | 3.5 | 7.8 | 0.00 | 0.00 | 0.00 | 80 | 1013.5 |
| 20260507001611 | 42 | 334 | 2.6 | 7.8 | 0.00 | 0.00 | 0.00 | 78 | 1013.5 |
| 20260507001056 | 42 | 282 | 1.7 | 6.1 | 0.00 | 0.00 | 0.00 | 80 | 1013.4 |
| 20260507000557 | 42 | 269 | 3.5 | 8.7 | 0.00 | 0.00 | 0.00 | 80 | 1013.4 |
| 20260507000101 | 42 | 242 | 5.2 | 8.7 | 0.00 | 0.00 | 0.00 | 79 | 1013.4 |
| 20260506235601 | 42 | 246 | 3.5 | 7.8 | 0.00 | 0.00 | 0.00 | 81 | 1013.4 |
| 20260506235100 | 42 | 296 | 2.6 | 6.1 | 0.00 | 0.00 | 0.00 | 78 | 1013.4 |
| 20260506234609 | 42 | 297 | 2.6 | 7.8 | 0.00 | 0.00 | 0.00 | 79 | 1013.3 |
| 20260506234102 | 42 | 15 | 2.6 | 7.8 | 0.00 | 0.00 | 0.00 | 82 | 1013.3 |
| 20260506233558 | 42 | 263 | 3.5 | 7.8 | 0.00 | 0.00 | 0.00 | 82 | 1013.4 |
| 20260506233104 | 41 | 265 | 2.6 | 8.7 | 0.00 | 0.00 | 0.00 | 82 | 1013.3 |
| 20260506232557 | 41 | 259 | 4.3 | 14.8 | 0.00 | 0.00 | 0.00 | 83 | 1013.3 |
| 20260506232100 | 42 | 290 | 4.3 | 14.8 | 0.00 | 0.00 | 0.00 | 82 | 1013.1 |
| 20260506231559 | 43 | 280 | 8.7 | 14.8 | 0.00 | 0.00 | 0.00 | 75 | 1013.2 |
| 20260506231058 | 43 | 280 | 7.8 | 12.2 | 0.00 | 0.00 | 0.00 | 73 | 1013.0 |
| 20260506230558 | 43 | 255 | 7.0 | 11.3 | 0.00 | 0.00 | 0.00 | 72 | 1012.8 |
| 20260506230058 | 44 | 257 | 5.2 | 9.6 | 0.00 | 0.00 | 0.00 | 72 | 1012.9 |
| 20260506225601 | 44 | 251 | 4.3 | 8.7 | 0.00 | 0.00 | 0.00 | 71 | 1013.0 |
| 20260506225057 | 43 | 257 | 4.3 | 11.3 | 0.00 | 0.00 | 0.00 | 72 | 1012.8 |
| 20260506224618 | 43 | 225 | 5.2 | 11.3 | 0.00 | 0.00 | 0.00 | 72 | 1012.8 |
| 20260506224231 | 43 | 257 | 7.8 | 13.0 | 0.00 | 0.00 | 0.00 | 72 | 1012.8 |
| 20260506224100 | 43 | 257 | 7.8 | 13.0 | 0.00 | 0.00 | 0.00 | 72 | 1012.8 |
| 20260506223600 | 44 | 267 | 6.1 | 13.0 | 0.00 | 0.00 | 0.00 | 70 | 1012.8 |
| 20260506223103 | 45 | 248 | 6.1 | 11.3 | 0.00 | 0.00 | 0.00 | 66 | 1012.7 |
| 20260506222600 | 47 | 207 | 2.6 | 9.6 | 0.00 | 0.00 | 0.00 | 58 | 1012.8 |
| 20260506222100 | 47 | 156 | 3.5 | 12.2 | 0.00 | 0.00 | 0.00 | 58 | 1012.7 |
| 20260506221559 | 47 | 192 | 5.2 | 12.2 | 0.00 | 0.00 | 0.00 | 58 | 1012.7 |
| 20260506221100 | 47 | 150 | 1.7 | 6.1 | 0.00 | 0.00 | 0.00 | 59 | 1012.6 |
| 20260506220556 | 47 | 67 | 1.7 | 7.0 | 0.00 | 0.00 | 0.00 | 60 | 1012.5 |
| 20260506220109 | 46 | 179 | 2.6 | 7.0 | 0.00 | 0.00 | 0.00 | 60 | 1012.7 |
| 20260506215557 | 46 | 0 | 0.9 | 4.3 | 0.00 | 0.00 | 0.00 | 67 | 1012.7 |
| 20260506215057 | 46 | 319 | 1.7 | 4.3 | 0.00 | 0.00 | 0.00 | 67 | 1012.6 |
| 20260506214559 | 46 | 302 | 0.9 | 7.8 | 0.00 | 0.00 | 0.00 | 67 | 1012.4 |
| 20260506214057 | 46 | 131 | 2.6 | 7.8 | 0.00 | 0.00 | 0.00 | 68 | 1012.5 |
| 20260506213559 | 46 | 66 | 2.6 | 7.8 | 0.00 | 0.00 | 0.00 | 69 | 1012.4 |
| 20260506213058 | 46 | 327 | 2.6 | 7.8 | 0.00 | 0.00 | 0.00 | 67 | 1012.4 |
| 20260506212557 | 46 | 317 | 1.7 | 6.1 | 0.00 | 0.00 | 0.00 | 67 | 1012.5 |
| 20260506212057 | 46 | 55 | 0.9 | 3.5 | 0.00 | 0.00 | 0.00 | 69 | 1012.4 |
| 20260506211603 | 46 | 0 | 0.9 | 7.8 | 0.00 | 0.00 | 0.00 | 68 | 1012.3 |
| 20260506211057 | 45 | 32 | 1.7 | 7.8 | 0.00 | 0.00 | 0.00 | 69 | 1012.3 |
| 20260506210557 | 45 | 317 | 0.9 | 4.3 | 0.00 | 0.00 | 0.00 | 69 | 1012.2 |
| 20260506210103 | 45 | 0 | 0.0 | 6.1 | 0.00 | 0.00 | 0.00 | 67 | 1012.2 |
| 20260506205556 | 45 | 254 | 1.7 | 6.1 | 0.00 | 0.00 | 0.00 | 69 | 1012.3 |
| 20260506205056 | 45 | 279 | 1.7 | 6.1 | 0.00 | 0.00 | 0.00 | 68 | 1012.1 |
| 20260506204559 | 45 | 336 | 2.6 | 7.0 | 0.00 | 0.00 | 0.00 | 69 | 1012.1 |
| 20260506204057 | 45 | 330 | 3.5 | 7.0 | 0.00 | 0.00 | 0.00 | 71 | 1012.1 |
| 20260506203559 | 44 | 355 | 3.5 | 7.8 | 0.00 | 0.00 | 0.00 | 73 | 1012.1 |
| 20260506203101 | 44 | 310 | 4.3 | 7.8 | 0.00 | 0.00 | 0.00 | 73 | 1012.1 |
| 20260506202557 | 45 | 290 | 3.5 | 7.0 | 0.00 | 0.00 | 0.00 | 72 | 1012.1 |
| 20260506202057 | 45 | 287 | 2.6 | 7.8 | 0.00 | 0.00 | 0.00 | 72 | 1012.0 |
| 20260506201559 | 45 | 325 | 3.5 | 7.8 | 0.00 | 0.00 | 0.00 | 73 | 1012.0 |
| 20260506201057 | 45 | 309 | 2.6 | 7.0 | 0.00 | 0.00 | 0.00 | 73 | 1012.0 |
| 20260506200600 | 45 | 19 | 1.7 | 5.2 | 0.00 | 0.00 | 0.00 | 74 | 1012.0 |
| 20260506200107 | 43 | 296 | 0.9 | 3.5 | 0.00 | 0.00 | 0.00 | 77 | 1011.9 |
| 20260506195556 | 43 | 281 | 0.9 | 3.5 | 0.00 | 0.00 | 0.00 | 78 | 1011.8 |
| 20260506195057 | 43 | 0 | 1.7 | 7.0 | 0.00 | 0.00 | 0.00 | 78 | 1011.9 |
| 20260506194601 | 43 | 0 | 0.9 | 7.0 | 0.00 | 0.00 | 0.00 | 77 | 1011.9 |
| 20260506194056 | 43 | 312 | 2.6 | 7.0 | 0.00 | 0.00 | 0.00 | 77 | 1011.8 |
| 20260506193556 | 43 | 308 | 2.6 | 7.0 | 0.00 | 0.00 | 0.00 | 77 | 1011.8 |
| 20260506193110 | 43 | 346 | 3.5 | 7.0 | 0.00 | 0.00 | 0.00 | 76 | 1011.8 |
| 20260506192557 | 43 | 0 | 1.7 | 5.2 | 0.00 | 0.00 | 0.00 | 76 | 1011.8 |
| 20260506192056 | 43 | 338 | 1.7 | 7.0 | 0.00 | 0.00 | 0.00 | 77 | 1011.9 |
| 20260506191557 | 43 | 267 | 2.6 | 7.0 | 0.00 | 0.00 | 0.00 | 76 | 1011.8 |
| 20260506191055 | 43 | 296 | 3.5 | 6.1 | 0.00 | 0.00 | 0.00 | 75 | 1011.8 |
| 20260506190609 | 43 | 310 | 1.7 | 6.1 | 0.00 | 0.00 | 0.00 | 74 | 1011.8 |
| 20260506190059 | 43 | 355 | 3.5 | 7.8 | 0.00 | 0.00 | 0.00 | 75 | 1011.8 |
| 20260506185600 | 43 | 0 | 1.7 | 7.8 | 0.00 | 0.00 | 0.00 | 76 | 1011.8 |
| 20260506185100 | 42 | 321 | 1.7 | 6.1 | 0.00 | 0.00 | 0.00 | 78 | 1011.7 |
| 20260506184606 | 42 | 325 | 1.7 | 7.0 | 0.00 | 0.00 | 0.00 | 77 | 1011.8 |
| 20260506184059 | 42 | 51 | 1.7 | 7.0 | 0.00 | 0.00 | 0.00 | 78 | 1011.8 |
| 20260506183600 | 41 | 338 | 2.6 | 7.0 | 0.00 | 0.00 | 0.00 | 77 | 1011.8 |
| 20260506183103 | 41 | 329 | 0.9 | 4.3 | 0.00 | 0.00 | 0.00 | 77 | 1011.8 |
| 20260506182559 | 41 | 329 | 1.7 | 5.2 | 0.00 | 0.00 | 0.00 | 77 | 1011.7 |
| 20260506182100 | 41 | 46 | 1.7 | 5.2 | 0.00 | 0.00 | 0.00 | 78 | 1011.7 |
| 20260506181626 | 41 | 0 | 1.7 | 4.3 | 0.00 | 0.00 | 0.00 | 79 | 1011.6 |
| 20260506181100 | 40 | 27 | 0.9 | 4.3 | 0.00 | 0.00 | 0.00 | 79 | 1011.6 |
| 20260506180601 | 40 | 348 | 0.9 | 4.3 | 0.00 | 0.00 | 0.00 | 79 | 1011.6 |
| 20260506180059 | 40 | 310 | 1.7 | 4.3 | 0.00 | 0.00 | 0.00 | 80 | 1011.7 |
| 20260506175600 | 40 | 294 | 2.6 | 4.3 | 0.00 | 0.00 | 0.00 | 80 | 1011.5 |
| 20260506175103 | 40 | 322 | 0.9 | 3.5 | 0.00 | 0.00 | 0.00 | 81 | 1011.5 |
| 20260506174602 | 39 | 33 | 0.9 | 5.2 | 0.00 | 0.00 | 0.00 | 81 | 1011.5 |
| 20260506174100 | 39 | 294 | 0.9 | 6.1 | 0.00 | 0.00 | 0.00 | 81 | 1011.4 |
| 20260506173600 | 39 | 294 | 2.6 | 6.1 | 0.00 | 0.00 | 0.00 | 81 | 1011.5 |
| 20260506173131 | 39 | 0 | 0.0 | 2.6 | 0.00 | 0.00 | 0.00 | 81 | 1011.4 |
| 20260506172600 | 39 | 342 | 0.9 | 3.5 | 0.00 | 0.00 | 0.00 | 80 | 1011.4 |
| 20260506172100 | 39 | 340 | 0.9 | 3.5 | 0.00 | 0.00 | 0.00 | 81 | 1011.4 |
| 20260506171606 | 38 | 342 | 0.0 | 2.6 | 0.00 | 0.00 | 0.00 | 80 | 1011.3 |
| 20260506171100 | 38 | 0 | 0.9 | 2.6 | 0.00 | 0.00 | 0.00 | 81 | 1011.3 |
| 20260506170600 | 38 | 344 | 0.0 | 2.6 | 0.00 | 0.00 | 0.00 | 81 | 1011.3 |
| 20260506170110 | 38 | 319 | 0.0 | 1.7 | 0.00 | 0.00 | 0.00 | 81 | 1011.2 |
| 20260506165602 | 38 | 0 | 0.0 | 1.7 | 0.00 | 0.00 | 0.00 | 81 | 1011.3 |
| 20260506165059 | 38 | 319 | 0.0 | 1.7 | 0.00 | 0.00 | 0.00 | 81 | 1011.1 |
| 20260506164600 | 38 | 319 | 0.0 | 1.7 | 0.00 | 0.00 | 0.00 | 80 | 1011.1 |
| 20260506164100 | 38 | 0 | 0.0 | 1.7 | 0.00 | 0.00 | 0.00 | 81 | 1011.1 |
| 20260506163600 | 38 | 0 | 0.0 | 3.5 | 0.00 | 0.00 | 0.00 | 81 | 1011.0 |
| 20260506163101 | 38 | 0 | 0.9 | 3.5 | 0.00 | 0.00 | 0.00 | 81 | 1011.0 |
| 20260506162600 | 38 | 320 | 1.7 | 3.5 | 0.00 | 0.00 | 0.00 | 81 | 1010.9 |
| 20260506162103 | 38 | 305 | 1.7 | 3.5 | 0.00 | 0.00 | 0.00 | 81 | 1010.9 |
| 20260506161601 | 38 | 338 | 0.9 | 3.5 | 0.00 | 0.00 | 0.00 | 81 | 1010.9 |
| 20260506161102 | 38 | 339 | 1.7 | 3.5 | 0.00 | 0.00 | 0.00 | 81 | 1010.8 |
| 20260506160600 | 38 | 349 | 0.9 | 2.6 | 0.00 | 0.00 | 0.00 | 81 | 1010.8 |
| 20260506160113 | 37 | 0 | 0.9 | 2.6 | 0.00 | 0.00 | 0.00 | 81 | 1010.7 |
| 20260506155600 | 37 | 350 | 0.0 | 2.6 | 0.00 | 0.00 | 0.00 | 81 | 1010.8 |
| 20260506155059 | 37 | 350 | 0.0 | 2.6 | 0.00 | 0.00 | 0.00 | 81 | 1010.7 |
| 20260506154557 | 37 | 349 | 0.9 | 2.6 | 0.00 | 0.00 | 0.00 | 81 | 1010.6 |
| 20260506154100 | 37 | 270 | 0.0 | 2.6 | 0.00 | 0.00 | 0.00 | 81 | 1010.6 |
| 20260506153600 | 37 | 270 | 0.9 | 2.6 | 0.00 | 0.00 | 0.00 | 81 | 1010.5 |
| 20260506153100 | 37 | 0 | 0.0 | 0.0 | 0.00 | 0.00 | 0.00 | 81 | 1010.6 |
| 20260506152600 | 37 | 0 | 0.0 | 0.0 | 0.00 | 0.00 | 0.00 | 81 | 1010.6 |
| 20260506152101 | 37 | 0 | 0.0 | 0.0 | 0.00 | 0.00 | 0.00 | 80 | 1010.6 |
| 20260506151557 | 37 | 0 | 0.0 | 0.0 | 0.00 | 0.00 | 0.00 | 80 | 1010.5 |
| 20260506151100 | 37 | 0 | 0.0 | 0.0 | 0.00 | 0.00 | 0.00 | 80 | 1010.5 |
| 20260506150600 | 37 | 0 | 0.0 | 1.7 | 0.00 | 0.00 | 0.00 | 80 | 1010.4 |
| 20260506150106 | 37 | 0 | 0.0 | 2.6 | 0.00 | 0.00 | 0.00 | 79 | 1010.4 |
| 20260506145600 | 37 | 0 | 0.9 | 2.6 | 0.00 | 0.00 | 0.00 | 79 | 1010.3 |
| 20260506145101 | 37 | 0 | 0.9 | 2.6 | 0.00 | 0.00 | 0.00 | 78 | 1010.3 |
| 20260506144602 | 37 | 192 | 0.0 | 2.6 | 0.00 | 0.00 | 0.00 | 78 | 1010.3 |
| 20260506144100 | 38 | 0 | 0.9 | 3.5 | 0.00 | 0.00 | 0.00 | 78 | 1010.2 |
| 20260506143600 | 38 | 193 | 1.7 | 3.5 | 0.00 | 0.00 | 0.00 | 77 | 1010.2 |
| 20260506143100 | 38 | 256 | 0.0 | 2.6 | 0.00 | 0.00 | 0.00 | 77 | 1010.2 |
| 20260506142602 | 38 | 265 | 1.7 | 2.6 | 0.00 | 0.00 | 0.00 | 76 | 1010.2 |
| 20260506142059 | 38 | 142 | 0.9 | 1.7 | 0.00 | 0.00 | 0.00 | 76 | 1010.2 |
| 20260506141559 | 38 | 0 | 0.0 | 2.6 | 0.00 | 0.00 | 0.00 | 75 | 1010.2 |
| 20260506141100 | 38 | 120 | 0.9 | 2.6 | 0.00 | 0.00 | 0.00 | 75 | 1010.2 |
| 20260506140601 | 38 | 120 | 1.7 | 2.6 | 0.00 | 0.00 | 0.00 | 75 | 1010.2 |
| 20260506140101 | 38 | 74 | 0.9 | 2.6 | 0.00 | 0.00 | 0.00 | 74 | 1010.2 |
| 20260506135600 | 38 | 0 | 0.0 | 1.7 | 0.00 | 0.00 | 0.00 | 74 | 1010.2 |
| 20260506135100 | 38 | 0 | 0.0 | 2.6 | 0.00 | 0.00 | 0.00 | 74 | 1010.2 |
| 20260506134600 | 38 | 0 | 0.9 | 3.5 | 0.00 | 0.00 | 0.00 | 74 | 1010.1 |
| 20260506134100 | 38 | 74 | 0.9 | 5.2 | 0.00 | 0.00 | 0.00 | 74 | 1010.2 |
| 20260506133600 | 39 | 71 | 1.7 | 5.2 | 0.00 | 0.00 | 0.00 | 74 | 1010.2 |
| 20260506133115 | 39 | 69 | 2.6 | 5.2 | 0.00 | 0.00 | 0.00 | 74 | 1010.1 |
| 20260506132600 | 39 | 57 | 2.6 | 4.3 | 0.00 | 0.00 | 0.00 | 74 | 1010.1 |
| 20260506132100 | 39 | 59 | 0.9 | 4.3 | 0.00 | 0.00 | 0.00 | 73 | 1010.1 |
| 20260506131603 | 39 | 58 | 1.7 | 4.3 | 0.00 | 0.00 | 0.00 | 73 | 1010.1 |
| 20260506131100 | 39 | 58 | 2.6 | 4.3 | 0.00 | 0.00 | 0.00 | 73 | 1010.0 |
| 20260506130600 | 39 | 0 | 0.0 | 5.2 | 0.00 | 0.00 | 0.00 | 73 | 1010.1 |
| 20260506125559 | 39 | 0 | 1.7 | 5.2 | 0.00 | 0.00 | 0.00 | 73 | 1009.9 |
| 20260506125059 | 39 | 96 | 1.7 | 4.3 | 0.00 | 0.00 | 0.00 | 73 | 1010.0 |
| 20260506124601 | 39 | 92 | 1.7 | 6.1 | 0.00 | 0.00 | 0.00 | 73 | 1009.9 |
| 20260506124059 | 39 | 71 | 2.6 | 6.1 | 0.00 | 0.00 | 0.00 | 74 | 1009.8 |
| 20260506123602 | 39 | 83 | 1.7 | 4.3 | 0.00 | 0.00 | 0.00 | 73 | 1009.9 |
| 20260506123100 | 39 | 134 | 0.9 | 3.5 | 0.00 | 0.00 | 0.00 | 73 | 1009.8 |
| 20260506122600 | 39 | 139 | 0.9 | 4.3 | 0.00 | 0.00 | 0.00 | 72 | 1009.9 |
| 20260506122100 | 39 | 90 | 0.9 | 4.3 | 0.00 | 0.00 | 0.00 | 72 | 1009.8 |
| 20260506121602 | 39 | 76 | 0.9 | 3.5 | 0.00 | 0.00 | 0.00 | 72 | 1009.8 |
| 20260506121059 | 40 | 84 | 0.0 | 3.5 | 0.00 | 0.00 | 0.00 | 71 | 1009.8 |
| 20260506120600 | 40 | 57 | 1.7 | 5.2 | 0.00 | 0.00 | 0.00 | 71 | 1009.7 |
| 20260506120059 | 40 | 57 | 1.7 | 6.1 | 0.00 | 0.00 | 0.00 | 69 | 1009.7 |
| 20260506115559 | 40 | 203 | 1.7 | 10.4 | 0.00 | 0.00 | 0.00 | 68 | 1009.7 |
| 20260506115056 | 40 | 137 | 4.3 | 10.4 | 0.00 | 0.00 | 0.00 | 69 | 1009.7 |
| 20260506114600 | 40 | 180 | 3.5 | 9.6 | 0.00 | 0.00 | 0.00 | 70 | 1009.8 |
| 20260506114057 | 39 | 174 | 0.9 | 7.8 | 0.00 | 0.00 | 0.00 | 71 | 1009.7 |
| 20260506113557 | 39 | 181 | 3.5 | 7.8 | 0.00 | 0.00 | 0.00 | 71 | 1009.7 |
| 20260506113100 | 39 | 160 | 1.7 | 6.1 | 0.00 | 0.00 | 0.00 | 72 | 1009.7 |
| 20260506112559 | 38 | 155 | 2.6 | 6.1 | 0.00 | 0.00 | 0.00 | 72 | 1009.7 |
| 20260506112056 | 38 | 182 | 0.9 | 2.6 | 0.00 | 0.00 | 0.00 | 73 | 1009.8 |
| 20260506111556 | 38 | 309 | 0.9 | 3.5 | 0.00 | 0.00 | 0.00 | 73 | 1009.7 |
| 20260506111057 | 39 | 309 | 0.9 | 4.3 | 0.00 | 0.00 | 0.00 | 73 | 1009.8 |
| 20260506110557 | 39 | 300 | 0.9 | 4.3 | 0.00 | 0.00 | 0.00 | 72 | 1009.7 |
| 20260506110104 | 39 | 66 | 2.6 | 4.3 | 0.00 | 0.00 | 0.00 | 73 | 1009.7 |
| 20260506105557 | 39 | 0 | 0.0 | 3.5 | 0.00 | 0.00 | 0.00 | 72 | 1009.6 |
| 20260506105058 | 39 | 5 | 1.7 | 3.5 | 0.00 | 0.00 | 0.00 | 71 | 1009.6 |
| 20260506104600 | 39 | 138 | 0.9 | 3.5 | 0.00 | 0.00 | 0.00 | 71 | 1009.5 |
| 20260506104057 | 39 | 0 | 0.0 | 2.6 | 0.00 | 0.00 | 0.00 | 71 | 1009.5 |
| 20260506103557 | 39 | 0 | 0.0 | 2.6 | 0.00 | 0.00 | 0.00 | 70 | 1009.5 |
| 20260506103057 | 40 | 0 | 0.9 | 2.6 | 0.00 | 0.00 | 0.00 | 70 | 1009.6 |
| 20260506102557 | 40 | 222 | 0.0 | 5.2 | 0.00 | 0.00 | 0.00 | 70 | 1009.5 |
| 20260506102059 | 40 | 212 | 1.7 | 7.8 | 0.00 | 0.00 | 0.00 | 70 | 1009.3 |
| 20260506101559 | 39 | 205 | 3.5 | 7.8 | 0.00 | 0.00 | 0.00 | 70 | 1009.3 |
| 20260506101057 | 39 | 177 | 3.5 | 7.8 | 0.00 | 0.00 | 0.00 | 71 | 1009.3 |
| 20260506100557 | 39 | 209 | 1.7 | 5.2 | 0.00 | 0.00 | 0.00 | 71 | 1009.3 |
| 20260506100057 | 39 | 235 | 1.7 | 3.5 | 0.00 | 0.00 | 0.00 | 71 | 1009.3 |
| 20260506095600 | 39 | 205 | 0.0 | 3.5 | 0.00 | 0.00 | 0.00 | 71 | 1009.3 |
| 20260506095057 | 40 | 0 | 0.0 | 6.1 | 0.00 | 0.00 | 0.00 | 70 | 1009.2 |
| 20260506094623 | 40 | 259 | 2.6 | 6.1 | 0.00 | 0.00 | 0.00 | 70 | 1009.3 |
| 20260506094057 | 40 | 261 | 2.6 | 7.8 | 0.00 | 0.00 | 0.00 | 69 | 1009.2 |
| 20260506093557 | 40 | 225 | 2.6 | 8.7 | 0.00 | 0.00 | 0.00 | 69 | 1009.2 |
| 20260506093059 | 41 | 231 | 4.3 | 8.7 | 0.00 | 0.00 | 0.00 | 68 | 1009.2 |
| 20260506092557 | 41 | 225 | 2.6 | 6.1 | 0.00 | 0.00 | 0.00 | 66 | 1009.2 |
| 20260506092057 | 41 | 277 | 1.7 | 10.4 | 0.00 | 0.00 | 0.00 | 65 | 1009.2 |
| 20260506091601 | 41 | 187 | 2.6 | 13.9 | 0.00 | 0.00 | 0.00 | 64 | 1009.1 |
| 20260506091100 | 41 | 165 | 6.1 | 13.9 | 0.00 | 0.00 | 0.00 | 64 | 1009.1 |
| 20260506090556 | 41 | 150 | 6.1 | 13.9 | 0.00 | 0.00 | 0.00 | 64 | 1009.0 |
| 20260506090100 | 41 | 170 | 5.2 | 14.8 | 0.00 | 0.00 | 0.00 | 64 | 1008.9 |
| 20260506085600 | 41 | 155 | 7.8 | 14.8 | 0.00 | 0.00 | 0.00 | 63 | 1009.0 |
| 20260506085100 | 42 | 158 | 6.1 | 14.8 | 0.00 | 0.00 | 0.00 | 63 | 1008.9 |
| 20260506084559 | 42 | 148 | 8.7 | 14.8 | 0.00 | 0.00 | 0.00 | 62 | 1008.9 |
| 20260506084057 | 42 | 150 | 5.2 | 14.8 | 0.00 | 0.00 | 0.00 | 62 | 1008.8 |
| 20260506083602 | 42 | 129 | 9.6 | 14.8 | 0.00 | 0.00 | 0.00 | 62 | 1008.8 |
| 20260506083109 | 42 | 166 | 6.1 | 13.9 | 0.00 | 0.00 | 0.00 | 62 | 1008.7 |
| 20260506082557 | 42 | 165 | 5.2 | 16.5 | 0.00 | 0.00 | 0.00 | 62 | 1008.7 |
| 20260506082057 | 42 | 139 | 9.6 | 16.5 | 0.00 | 0.00 | 0.00 | 62 | 1008.7 |
| 20260506081604 | 42 | 160 | 9.6 | 21.7 | 0.00 | 0.00 | 0.00 | 62 | 1008.7 |
| 20260506081100 | 42 | 161 | 11.3 | 21.7 | 0.00 | 0.00 | 0.00 | 62 | 1008.7 |
| 20260506080557 | 42 | 171 | 7.8 | 16.5 | 0.00 | 0.00 | 0.00 | 61 | 1008.4 |
| 20260506080104 | 42 | 183 | 8.7 | 20.0 | 0.00 | 0.00 | 0.00 | 60 | 1008.5 |
| 20260506073100 | 42 | 140 | 9.6 | 14.8 | 0.00 | 0.00 | 0.00 | 62 | 1008.2 |
| 20260506072601 | 42 | 135 | 7.8 | 16.5 | 0.00 | 0.00 | 0.00 | 62 | 1008.3 |
| 20260506072101 | 42 | 167 | 10.4 | 16.5 | 0.00 | 0.00 | 0.00 | 62 | 1008.3 |
| 20260506071600 | 42 | 159 | 7.0 | 15.6 | 0.00 | 0.00 | 0.00 | 62 | 1008.2 |
| 20260506071056 | 42 | 141 | 8.7 | 18.2 | 0.00 | 0.00 | 0.00 | 62 | 1008.2 |
| 20260506070558 | 42 | 151 | 8.7 | 18.2 | 0.00 | 0.00 | 0.00 | 62 | 1008.2 |
| 20260506070104 | 42 | 182 | 10.4 | 18.2 | 0.00 | 0.00 | 0.00 | 62 | 1008.2 |